Location: Round Knob
(37.2473°N, 88.7376°W)
Time: 09:35:20
(UTC+00:00)

N. Korean satellite - Pass Details

Date: 06 October 2021
Orbit: 450 x 495 km, 97.3° (Epoch: 15 October)

Event Time Altitude Azimuth Distance (km) Brightness Sun altitude
Rises 10:55:50 0° 16° (NNE) 2,567 10.5 -12.6°
Reaches altitude 10° 10:57:56 10° 20° (NNE) 1,687 9.6 -12.2°
Maximum altitude 11:01:31 58° 100° (E) 581 7.3 -11.5°
Drops below altitude 10° 11:05:06 10° 180° (S) 1,686 9.3 -10.7°
Sets 11:07:11 0° 184° (S) 2,565 10.2 -10.3°
